Nantucket, MA

12:50 AM EDT on March 23, 2017 (GMT -0400)
Nantucket Memorial

Weather History for KACK - January, 2012

Change the Weather History Date:

Thursday, January 5, 2012

  Actual Average Record
Temperature  
Mean Temperature 36 °F -  
Max Temperature 39 °F 36 °F 57 °F (1950)
Min Temperature 32 °F 22 °F 2 °F (1981)
Degree Days  
Heating Degree Days 30    
Moisture  
Dew Point 23 °F    
Average Humidity 61    
Maximum Humidity 79    
Minimum Humidity 50    
Precipitation  
Precipitation 0.00 in - - ()
Sea Level Pressure  
Sea Level Pressure 29.85 in    
Wind  
Wind Speed 13 mph (WNW)    
Max Wind Speed 23 mph    
Max Gust Speed 30 mph    
Visibility 10 miles    
Events Rain , Snow    
Averages and records for this station are not official NWS values.
T = Trace of Precipitation, MM = Missing Value Source: NWS Daily Summary

Daily Weather History Graph

Daily Weather History Graph

Search for Another Location

Airport or City:

Trip Planner

Search our weather history database for the weather conditions in past years. The results will help you decide how hot, cold, wet, or windy it might be!

Date:

Astronomy

Jan. 05, 2012 Rise Set
Actual Time 7:06 AM EST 4:25 PM EST
Civil Twilight 6:35 AM EST 4:56 PM EST
Nautical Twilight 6:00 AM EST 5:30 PM EST
Astronomical Twilight 5:27 AM EST 6:04 PM EST
Moon 1:26 PM EST (1/5) 3:48 AM EST (1/5)
Length of Visible Light 10h 20m
Length of Day
9h 18m
Waxing Gibbous, 87% of the Moon is Illuminated
Jan 5
Waxing Gibbous
Jan 9
Full
Jan 16
Last Quarter
Jan 23
New
Jan 30
First Quarter

Hourly Weather History & Observations

Time (EST) Temp. Windchill Dew Point Humidity Pressure Visibility Wind Dir Wind Speed Gust Speed Precip Events Conditions
12:53 AM 37.0 °F 27.4 °F 28.0 °F 70% 29.91 in 10.0 mi West 17.3 mph 24.2 mph 0.00 in   Overcast
1:53 AM 35.1 °F 23.8 °F 19.9 °F 54% 29.91 in 10.0 mi West 20.7 mph 27.6 mph N/A   Mostly Cloudy
2:53 AM 35.1 °F 24.1 °F 25.0 °F 67% 29.90 in 10.0 mi West 19.6 mph 29.9 mph 0.00 in Rain Light Rain
3:06 AM 35.6 °F 24.0 °F 19.4 °F 52% 29.89 in 10.0 mi West 23.0 mph 29.9 mph 0.00 in   Overcast
3:53 AM 32.0 °F 26.4 °F 23.0 °F 69% 29.88 in 10.0 mi WNW 5.8 mph - 0.00 in   Mostly Cloudy
4:53 AM 33.1 °F 26.9 °F 24.1 °F 70% 29.87 in 10.0 mi West 6.9 mph - N/A   Overcast
5:53 AM 32.0 °F 27.5 °F 26.1 °F 79% 29.86 in 4.0 mi WNW 4.6 mph - 0.00 in Snow Light Snow
6:53 AM 32.0 °F 27.5 °F 23.0 °F 69% 29.84 in 10.0 mi NW 4.6 mph - 0.00 in   Overcast
7:53 AM 32.0 °F 28.7 °F 23.0 °F 69% 29.85 in 10.0 mi WNW 3.5 mph - N/A   Overcast
8:53 AM 33.1 °F 26.9 °F 24.1 °F 70% 29.87 in 10.0 mi NW 6.9 mph - N/A   Overcast
9:53 AM 34.0 °F 28.0 °F 23.0 °F 64% 29.87 in 10.0 mi WNW 6.9 mph - N/A   Overcast
10:53 AM 36.0 °F 28.5 °F 24.1 °F 62% 29.83 in 10.0 mi West 10.4 mph - N/A   Overcast
11:53 AM 37.4 °F 28.5 °F 24.8 °F 60% 29.79 in 10.0 mi West 15.0 mph 21.9 mph N/A   Scattered Clouds
12:53 PM 39.0 °F 30.6 °F 24.1 °F 55% 29.76 in 10.0 mi West 15.0 mph 23.0 mph N/A   Clear
1:53 PM 39.0 °F 31.0 °F 21.9 °F 50% 29.76 in 10.0 mi West 13.8 mph - N/A   Clear
2:53 PM 37.9 °F 29.2 °F 24.1 °F 57% 29.78 in 10.0 mi West 15.0 mph 23.0 mph N/A   Clear
3:53 PM 37.0 °F 28.9 °F 24.1 °F 59% 29.80 in 10.0 mi West 12.7 mph - N/A   Clear
4:53 PM 35.1 °F 27.4 °F 23.0 °F 61% 29.82 in 10.0 mi West 10.4 mph - N/A   Clear
5:53 PM 35.1 °F 26.9 °F 21.9 °F 59% 29.85 in 10.0 mi WNW 11.5 mph - N/A   Clear
6:53 PM 35.6 °F 28.6 °F 23.0 °F 60% 29.87 in 10.0 mi West 9.2 mph - N/A   Scattered Clouds
7:53 PM 37.4 °F 30.8 °F 23.0 °F 56% 29.87 in 10.0 mi WNW 9.2 mph - N/A   Overcast
8:53 PM 37.0 °F 28.1 °F 21.9 °F 54% 29.88 in 10.0 mi WNW 15.0 mph 23.0 mph N/A   Mostly Cloudy
9:53 PM 35.1 °F 27.4 °F 19.0 °F 52% 29.89 in 10.0 mi WNW 10.4 mph - N/A   Mostly Cloudy
10:53 PM 33.1 °F 24.4 °F 18.0 °F 54% 29.91 in 10.0 mi WNW 11.5 mph - N/A   Clear
11:53 PM 32.0 °F 22.5 °F 19.0 °F 59% 29.91 in 10.0 mi WNW 12.7 mph - N/A   Clear